Burlington, VT

1:50 AM EDT on June 22, 2018 (GMT -0400)
Burlington International

Weather History for KBTV - November, 2017

Change the Weather History Date:

Monday, November 20, 2017

  Actual Average Record
Temperature  
Mean Temperature 28 °F 37 °F  
Max Temperature 31 °F 44 °F 71 °F (1991)
Min Temperature 25 °F 30 °F 5 °F (1933)
Degree Days  
Heating Degree Days 37 28  
Month to date heating degree days 529 498  
Since 1 July heating degree days 849 1239  
Cooling Degree Days 0 0  
Month to date cooling degree days 0 0  
Year to date cooling degree days 652 491  
Moisture  
Dew Point 18 °F    
Average Humidity 66    
Maximum Humidity 81    
Minimum Humidity 50    
Precipitation  
Precipitation 0.06 in 0.10 in 1.24 in (1948)
Month to date precipitation 1.23 2.16  
Year to date precipitation 37.27 33.47  
Snow  
Snow 1.30 in 0.20 in 12.90 in (1914)
Month to date snowfall 1.3 2.4  
Since 1 July snowfall 1.3 2.7  
Since 1 September snowfall 1.3 2.7  
Snow Depth 0.00 in    
Sea Level Pressure  
Sea Level Pressure 29.89 in    
Wind  
Wind Speed 7 mph (NNE)    
Max Wind Speed 21 mph    
Max Gust Speed 31 mph    
Visibility 7 miles    
Events Snow    
T = Trace of Precipitation, MM = Missing Value Source: NWS Daily Summary

Daily Weather History Graph

Daily Weather History Graph

Search for Another Location

Airport or City:

Astronomy

Nov. 20, 2017 Rise Set
Actual Time 6:55 AM EST 4:20 PM EST
Civil Twilight 6:23 AM EST 4:52 PM EST
Nautical Twilight 5:48 AM EST 5:27 PM EST
Astronomical Twilight 5:13 AM EST 6:02 PM EST
Moon 8:36 AM EST (11/20) 6:13 PM EST (11/20)
Length of Visible Light 10h 28m
Length of Day
9h 24m
Waxing Crescent, 4% of the Moon is Illuminated
Nov 20
Waxing Crescent
Nov 26
First Quarter
Dec 3
Full
Dec 10
Last Quarter
Dec 18
New

Hourly Weather History & Observations

Time (EST) Temp. Windchill Dew Point Humidity Pressure Visibility Wind Dir Wind Speed Gust Speed Precip Events Conditions
12:54 AM 30.9 °F 21.7 °F 19.0 °F 61% 29.69 in 10.0 mi WNW 11.5 mph 19.6 mph N/A   Overcast
1:54 AM 30.0 °F 21.1 °F 19.0 °F 64% 29.71 in 10.0 mi West 10.4 mph - N/A   Overcast
2:54 AM 30.0 °F 19.1 °F 18.0 °F 61% 29.73 in 10.0 mi WNW 15.0 mph - N/A   Overcast
3:27 AM 30.0 °F 24.1 °F 18.0 °F 61% 29.72 in 10.0 mi WNW 5.8 mph - N/A   Overcast
3:34 AM 30.0 °F 23.2 °F 18.0 °F 61% 29.72 in 10.0 mi WNW 6.9 mph - N/A   Overcast
3:54 AM 30.0 °F 21.7 °F 18.0 °F 61% 29.74 in 10.0 mi WNW 9.2 mph - N/A   Overcast
4:54 AM 30.0 °F 19.1 °F 17.1 °F 59% 29.77 in 10.0 mi WNW 15.0 mph 21.9 mph N/A   Overcast
5:54 AM 27.0 °F 14.7 °F 15.1 °F 61% 29.81 in 10.0 mi NW 16.1 mph 26.5 mph N/A   Partly Cloudy
6:54 AM 27.0 °F 15.2 °F 12.0 °F 53% 29.85 in 10.0 mi West 15.0 mph 26.5 mph N/A   Mostly Cloudy
7:54 AM 25.0 °F 13.6 °F 10.9 °F 55% 29.90 in 10.0 mi West 12.7 mph 26.5 mph N/A   Mostly Cloudy
8:54 AM 25.0 °F 13.1 °F 10.0 °F 53% 29.92 in 10.0 mi West 13.8 mph 18.4 mph N/A   Mostly Cloudy
9:54 AM 26.1 °F 16.8 °F 10.0 °F 51% 29.92 in 10.0 mi WNW 9.2 mph - N/A   Mostly Cloudy
10:54 AM 27.0 °F 20.5 °F 12.0 °F 53% 29.91 in 10.0 mi Variable 5.8 mph - N/A   Overcast
11:54 AM 28.0 °F 22.8 °F 12.9 °F 53% 29.89 in 10.0 mi Variable 4.6 mph - N/A   Overcast
12:24 PM 28.0 °F 20.0 °F 17.1 °F 63% 29.88 in 2.5 mi NNW 8.1 mph - 0.00 in Snow Light Snow
12:35 PM 27.0 °F 21.6 °F 18.0 °F 69% 29.88 in 1.5 mi North 4.6 mph - 0.00 in Snow Light Snow
12:43 PM 27.0 °F 20.5 °F 19.0 °F 72% 29.88 in 1.0 mi NNE 5.8 mph - 0.00 in Snow Light Snow
12:51 PM 26.6 °F 22.6 °F 19.4 °F 74% 29.88 in 0.5 mi East 3.5 mph - 0.01 in Snow Snow
12:54 PM 26.1 °F 20.5 °F 21.0 °F 81% 29.90 in 0.5 mi East 4.6 mph - 0.01 in Snow Snow
1:19 PM 26.1 °F 19.4 °F 21.9 °F 84% 29.88 in 1.2 mi ENE 5.8 mph - 0.02 in Snow Light Snow
1:34 PM 25.0 °F 17.1 °F 21.0 °F 85% 29.88 in 0.8 mi East 6.9 mph - 0.03 in Snow Light Snow
1:51 PM 26.6 °F 22.6 °F 21.2 °F 80% 29.89 in 1.2 mi East 3.5 mph - 0.03 in Snow Light Snow
1:54 PM 26.1 °F 21.9 °F 21.0 °F 81% 29.91 in 1.2 mi East 3.5 mph - 0.03 in Snow Light Snow
2:54 PM 26.1 °F - 21.0 °F 81% 29.92 in 2.0 mi Calm Calm - 0.01 in Snow Light Snow
3:06 PM 26.1 °F - 21.0 °F 81% 29.91 in 4.0 mi Calm Calm - 0.00 in Snow Light Snow
3:20 PM 26.1 °F 20.5 °F 21.9 °F 84% 29.91 in 4.0 mi East 4.6 mph - 0.00 in Snow Light Snow
3:54 PM 26.1 °F 21.9 °F 21.9 °F 84% 29.94 in 8.0 mi ENE 3.5 mph - 0.00 in Snow Light Snow
4:17 PM 26.1 °F 20.5 °F 21.9 °F 84% 29.94 in 2.0 mi East 4.6 mph - 0.00 in Snow Light Snow
4:28 PM 26.1 °F 20.5 °F 21.9 °F 84% 29.94 in 4.0 mi East 4.6 mph - 0.00 in Snow Light Snow
4:54 PM 26.1 °F 21.9 °F 21.9 °F 84% 29.97 in 5.0 mi SE 3.5 mph - 0.01 in Snow Light Snow
5:54 PM 26.1 °F - 21.0 °F 81% 30.00 in 10.0 mi Calm Calm - 0.00 in   Overcast
6:54 PM 26.1 °F 19.4 °F 21.0 °F 81% 30.02 in 10.0 mi East 5.8 mph - N/A   Overcast
7:54 PM 26.1 °F 20.5 °F 19.9 °F 78% 30.03 in 10.0 mi East 4.6 mph - N/A   Overcast
8:54 PM 26.1 °F 18.4 °F 19.0 °F 75% 30.03 in 10.0 mi East 6.9 mph - N/A   Overcast
9:54 PM 26.1 °F 21.9 °F 19.9 °F 78% 30.02 in 10.0 mi East 3.5 mph - N/A   Overcast
10:54 PM 27.0 °F - 19.9 °F 75% 30.01 in 10.0 mi Calm Calm - N/A   Overcast
11:52 PM 28.4 °F - 21.2 °F 74% 30.00 in 10.0 mi Calm Calm - N/A   Overcast
11:54 PM 28.0 °F - 21.0 °F 75% 30.01 in 10.0 mi Calm Calm - N/A   Overcast